VK2CZZ Weather Reports


Display with metric or nautical units.
time (UTC)temp
F
wind
direction
speed
MPH
gust
MPH
rain 1hr
in
rain 24hr
in
rain mn
in
humidity
%
barometer
mb
20260510061028 69 197 0.0 0.0 0.00 0.00 0.00 78 1028.9
20260510060020 69 200 0.0 0.0 0.00 0.00 0.00 77 1028.8
20260510055036 69 193 0.0 0.0 0.00 0.00 0.00 76 1028.8
20260510054056 70 200 0.0 0.0 0.00 0.00 0.00 75 1028.6
20260510053029 70 206 0.0 0.0 0.00 0.00 0.00 75 1028.6
20260510052022 70 205 0.0 0.0 0.00 0.00 0.00 74 1028.5
20260510051040 70 190 0.0 7.0 0.00 0.00 0.00 73 1028.4
20260510050032 70 190 0.0 0.0 0.00 0.00 0.00 73 1028.4
20260510045031 70 205 0.0 0.0 0.00 0.00 0.00 73 1028.3
20260510044023 70 360 0.0 6.0 0.00 0.00 0.00 70 1028.2
20260510043021 71 202 0.0 0.0 0.00 0.00 0.00 69 1028.1
20260510042038 71 198 0.0 0.0 0.00 0.00 0.00 69 1028.1
20260510041039 71 203 0.0 0.0 0.00 0.00 0.00 69 1028.2
20260510040031 71 196 0.0 0.0 0.00 0.00 0.00 68 1028.2
20260510035047 71 200 0.0 0.0 0.00 0.00 0.00 65 1028.1
20260510034020 72 183 0.0 0.0 0.00 0.00 0.00 66 1028.1
20260510033053 72 211 0.0 0.0 0.00 0.00 0.00 67 1028.1
20260510032026 72 202 0.0 5.0 0.00 0.00 0.00 65 1028.1
20260510031039 72 191 0.0 8.0 0.00 0.00 0.00 64 1028.3
20260510030038 72 207 0.0 0.0 0.00 0.00 0.00 66 1028.4
20260510025036 72 202 0.0 0.0 0.00 0.00 0.00 64 1028.5
20260510024035 72 192 0.0 0.0 0.00 0.00 0.00 64 1028.6
20260510023033 71 208 0.0 0.0 0.00 0.00 0.00 65 1028.7
20260510022028 71 206 0.0 0.0 0.00 0.00 0.00 64 1028.8
20260510021030 72 188 0.0 6.0 0.00 0.00 0.00 61 1029.0
20260510020025 72 228 1.0 10.0 0.00 0.00 0.00 58 1029.0
20260510015038 72 221 0.0 0.0 0.00 0.00 0.00 63 1029.1
20260510014038 71 234 0.0 0.0 0.00 0.00 0.00 63 1029.3
20260510013037 71 259 0.0 0.0 0.00 0.00 0.00 64 1029.4
20260510012033 70 291 0.0 0.0 0.00 0.00 0.00 66 1029.5
20260510011027 70 288 0.0 0.0 0.00 0.00 0.00 65 1029.7
20260510010023 70 271 0.0 0.0 0.00 0.00 0.00 66 1029.8
20260510005017 69 269 0.0 0.0 0.00 0.00 0.00 67 1029.9
20260510004037 69 281 0.0 0.0 0.00 0.00 0.00 69 1030.0
20260510003036 68 275 0.0 0.0 0.00 0.00 0.00 69 1030.0
20260510002031 67 276 0.0 0.0 0.00 0.00 0.00 72 1029.9
20260510001029 66 275 0.0 0.0 0.00 0.00 0.00 73 1029.9
20260510000025 65 273 0.0 0.0 0.00 0.00 0.00 76 1029.8
20260509235022 64 273 0.0 0.0 0.00 0.00 0.00 77 1029.8
20260509234024 64 269 0.0 0.0 0.00 0.00 0.00 79 1029.9
20260509233017 62 275 0.0 0.0 0.00 0.00 0.00 80 1029.8
20260509232034 61 274 0.0 0.0 0.00 0.00 0.00 81 1029.8
20260509231028 61 274 0.0 0.0 0.00 0.00 0.00 82 1029.8
20260509230025 60 275 0.0 0.0 0.00 0.00 0.00 82 1029.8
20260509225019 59 279 0.0 0.0 0.00 0.00 0.00 84 1029.7
20260509224036 58 284 0.0 0.0 0.00 0.00 0.00 86 1029.6
20260509223036 57 284 0.0 0.0 0.00 0.00 0.00 87 1029.7
20260509222051 56 284 0.0 0.0 0.00 0.00 0.00 88 1029.7
20260509221027 55 284 0.0 0.0 0.00 0.00 0.00 89 1029.8
20260509220021 54 284 0.0 0.0 0.00 0.00 0.00 91 1029.7
20260509215018 54 296 0.0 0.0 0.00 0.00 0.00 92 1029.6
20260509214032 53 294 0.0 0.0 0.00 0.00 0.00 92 1029.5
20260509213025 52 294 0.0 0.0 0.00 0.00 0.00 92 1029.5
20260509212020 52 288 0.0 0.0 0.00 0.00 0.00 93 1029.4
20260509211036 52 286 0.0 0.0 0.00 0.00 0.00 93 1029.3
20260509210015 51 309 0.0 0.0 0.00 0.00 0.00 93 1029.1
20260509205031 51 306 0.0 0.0 0.00 0.00 0.00 93 1029.0
20260509204028 51 300 0.0 0.0 0.00 0.00 0.00 93 1029.0
20260509203021 52 300 0.0 0.0 0.00 0.00 0.00 93 1028.8
20260509202037 52 294 0.0 0.0 0.00 0.00 0.00 93 1028.6
20260509201035 52 281 0.0 0.0 0.00 0.00 0.00 93 1028.5
20260509200029 52 279 0.0 0.0 0.00 0.00 0.00 93 1028.3
20260509195021 52 278 0.0 0.0 0.00 0.00 0.00 93 1028.2
20260509194018 52 277 0.0 0.0 0.00 0.00 0.00 93 1028.1
20260509193057 52 277 0.0 0.0 0.00 0.00 0.00 93 1028.0
20260509192030 52 275 0.0 0.0 0.00 0.00 0.00 94 1028.0
20260509191030 52 274 0.0 0.0 0.00 0.00 0.00 94 1027.8
20260509190023 52 274 0.0 0.0 0.00 0.00 0.00 93 1027.7
20260509185040 52 274 0.0 0.0 0.00 0.00 0.00 93 1027.5
20260509184040 52 273 0.0 0.0 0.00 0.00 0.00 93 1027.5
20260509183055 52 274 0.0 0.0 0.00 0.00 0.00 93 1027.4
20260509182029 52 273 0.0 0.0 0.00 0.00 0.00 93 1027.3
20260509181030 52 273 0.0 0.0 0.00 0.00 0.00 93 1027.3
20260509180049 52 273 0.0 0.0 0.00 0.00 0.00 93 1027.1
20260509175044 52 273 0.0 0.0 0.00 0.00 0.00 93 1027.0
20260509174102 52 273 0.0 0.0 0.00 0.00 0.00 92 1027.0
20260509173040 53 273 0.0 0.0 0.00 0.00 0.00 93 1026.9
20260509172035 53 273 0.0 0.0 0.00 0.00 0.00 93 1026.8
20260509171028 52 273 0.0 0.0 0.00 0.00 0.00 93 1026.8
20260509170044 52 273 0.0 0.0 0.00 0.00 0.00 92 1026.8
20260509165040 52 273 0.0 0.0 0.00 0.00 0.00 92 1026.8
20260509164040 53 273 0.0 0.0 0.00 0.00 0.00 92 1026.8
20260509163036 53 273 0.0 0.0 0.00 0.00 0.00 92 1026.8
20260509162050 53 273 0.0 0.0 0.00 0.00 0.00 92 1026.9
20260509161025 53 273 0.0 0.0 0.00 0.00 0.00 92 1027.0
20260509160045 53 273 0.0 0.0 0.00 0.00 0.00 92 1026.9
20260509155019 54 273 0.0 0.0 0.00 0.00 0.00 92 1026.9
20260509154037 54 273 0.0 0.0 0.00 0.00 0.00 92 1027.0
20260509153035 54 273 0.0 0.0 0.00 0.00 0.00 92 1027.0
20260509152030 54 273 0.0 0.0 0.00 0.00 0.00 93 1027.0
20260509151023 53 273 0.0 0.0 0.00 0.00 0.00 93 1026.9
20260509150039 53 235 0.0 0.0 0.00 0.00 0.00 93 1026.8
20260509145059 53 235 0.0 0.0 0.00 0.00 0.00 93 1026.8
20260509144032 53 235 0.0 0.0 0.00 0.00 0.00 93 1026.8
20260509143027 53 235 0.0 0.0 0.00 0.00 0.00 93 1026.8
20260509142024 53 234 0.0 0.0 0.00 0.00 0.00 93 1026.8
20260509141021 53 186 0.0 0.0 0.00 0.00 0.00 93 1026.8
20260509140041 53 186 0.0 0.0 0.00 0.00 0.00 93 1026.8
20260509135033 53 186 0.0 0.0 0.00 0.00 0.00 93 1026.8
20260509134027 52 186 0.0 0.0 0.00 0.00 0.00 93 1026.9
20260509133044 52 186 0.0 0.0 0.00 0.00 0.00 93 1026.9
20260509132040 51 186 0.0 0.0 0.00 0.00 0.00 91 1026.9
20260509131033 52 186 0.0 0.0 0.00 0.00 0.00 91 1026.9
20260509130050 52 186 0.0 0.0 0.00 0.00 0.00 91 1026.9
20260509125028 52 186 0.0 0.0 0.00 0.00 0.00 91 1026.8
20260509124021 53 186 0.0 0.0 0.00 0.00 0.00 91 1026.8
20260509123035 53 186 0.0 0.0 0.00 0.00 0.00 91 1026.8
20260509122051 53 186 0.0 0.0 0.00 0.00 0.00 91 1026.8
20260509121023 53 186 0.0 0.0 0.00 0.00 0.00 90 1026.8
20260509120036 53 186 0.0 0.0 0.00 0.00 0.00 90 1026.9
20260509115055 53 186 0.0 0.0 0.00 0.00 0.00 89 1026.8
20260509114049 54 186 0.0 0.0 0.00 0.00 0.00 89 1026.8
20260509113048 54 186 0.0 0.0 0.00 0.00 0.00 89 1026.8
20260509112022 54 186 0.0 0.0 0.00 0.00 0.00 89 1026.8
20260509111036 54 186 0.0 0.0 0.00 0.00 0.00 88 1026.7
20260509110030 55 186 0.0 0.0 0.00 0.00 0.00 88 1026.6
20260509105023 55 186 0.0 0.0 0.00 0.00 0.00 88 1026.6
20260509104040 55 186 0.0 0.0 0.00 0.00 0.00 87 1026.5
20260509103053 55 186 0.0 0.0 0.00 0.00 0.00 87 1026.6
20260509102029 56 186 0.0 0.0 0.00 0.00 0.00 86 1026.5
20260509101026 56 186 0.0 0.0 0.00 0.00 0.00 85 1026.4
20260509100023 56 186 0.0 0.0 0.00 0.00 0.00 84 1026.4
20260509095101 57 186 0.0 0.0 0.00 0.00 0.00 83 1026.2
20260509094035 57 186 0.0 0.0 0.00 0.00 0.00 83 1026.2
20260509093028 58 186 0.0 0.0 0.00 0.00 0.00 82 1026.2
20260509092021 58 186 0.0 0.0 0.00 0.00 0.00 80 1026.1
20260509091042 59 186 0.0 0.0 0.00 0.00 0.00 79 1026.0
20260509090039 60 186 0.0 0.0 0.00 0.00 0.00 77 1026.0
20260509085057 60 186 0.0 0.0 0.00 0.00 0.00 76 1025.9
20260509084033 61 186 0.0 0.0 0.00 0.00 0.00 76 1025.8
20260509083027 61 186 0.0 0.0 0.00 0.00 0.00 74 1025.7
20260509082042 62 186 0.0 0.0 0.00 0.00 0.00 74 1025.6
20260509081021 62 186 0.0 0.0 0.00 0.00 0.00 74 1025.4
20260509080100 63 186 0.0 0.0 0.00 0.00 0.00 73 1025.3
20260509075032 63 186 0.0 0.0 0.00 0.00 0.00 72 1025.2
20260509074046 64 186 0.0 0.0 0.00 0.00 0.00 72 1025.1
20260509073022 64 186 0.0 0.0 0.00 0.00 0.00 70 1025.0
20260509072019 65 186 0.0 0.0 0.00 0.00 0.00 69 1025.0
20260509071035 66 186 0.0 0.0 0.00 0.00 0.00 68 1024.8
20260509070029 66 186 0.0 0.0 0.00 0.00 0.00 67 1024.7
20260509065022 67 184 0.0 0.0 0.00 0.00 0.00 66 1024.6
20260509064039 67 184 0.0 0.0 0.00 0.00 0.00 64 1024.5
20260509063037 68 184 0.0 0.0 0.00 0.00 0.00 64 1024.4
20260509062058 68 360 0.0 0.0 0.00 0.00 0.00 64 1024.4